User: anonymous   Login
Location: Via Auriletto, 13, 10098 Rivoli TO, Italia
(45.0746°N, 7.5214°E)
Time: 16:44:12
(UTC+02:00)
Language:

XW-2D - Orbit

View from above orbital plane
View from above orbital plane
View from above satellite
View from above satellite

Ground track
Ground track

The orbit data is extracted from the following two-line orbital elements,

1 40907U 15049J   21109.97559589  .00001606  00000-0  84683-4 0  9995
2 40907  97.4856 112.8384 0015052  33.0105  25.8664 15.16933888308737
Epoch (UTC): 19 April 2021 23:24:51
Eccentricity: 0.0015052
inclination: 97.4856°
perigee height: 505 km
apogee height: 525 km
right ascension of ascending node: 112.8384°
argument of perigee: 33.0105°
revolutions per day: 15.16933888
mean anomaly at epoch: 25.8664°
orbit number at epoch: 30873

The dashed part of the orbit path shows where the satellite is in the earth's shadow,  

DLR